DTUSAT 1 27842U 03031C 08132.60178783 .00000022 00000-0 30436-4 0 2834 2 27842 98.7116 142.3673 0008814 198.1357 161.9497 14.20930064252317 CUTE-1 (CO-55) 1 27844U 03031E 08133.02265192 .00000057 00000-0 47012-4 0 3022 2 27844 98.7156 141.7920 0008981 217.8039 142.2507 14.20578401252308 QUAKESAT 1 27845U 03031F 08133.57071103 .00000057 00000-0 47052-4 0 2821 2 27845 98.7211 141.7088 0008195 233.5451 126.4976 14.20193294252303 AAU CUBESAT 1 27846U 03031G 08133.58740133 .00000003 00000-0 21503-4 0 2272 2 27846 98.7107 143.3343 0008946 196.2585 163.8284 14.20930635252458 CANX-1 1 27847U 03031H 08133.59161055 .00000016 00000-0 27810-4 0 2398 2 27847 98.7114 143.3357 0008807 195.4648 164.6256 14.20917962252400 CUBESAT XI-IV (CO-57) 1 27848U 03031J 08133.01587464 .00000038 00000-0 38081-4 0 2545 2 27848 98.7150 140.8875 0008972 222.6849 137.3631 14.20387238252273 UWE-1 1 28892U 05043C 08132.75181245 .00000242 00000-0 60449-4 0 444 2 28892 98.0997 27.2564 0017581 159.6345 200.5579 14.59626317135285 CUBESAT XI-V (CO-58) 1 28895U 05043F 08133.74898000 -.00000009 00000-0 76598-5 0 198 2 28895 98.1023 28.5747 0018265 157.0179 203.1863 14.59666054135314 NCUBE-2 1 28897U 05043H 08132.68951481 .00000136 00000-0 38040-4 0 5481 2 28897 98.0991 27.4710 0017369 160.8762 199.3088 14.59836243127440 CUTE-1.7+APD (CO-56) 1 28941U 06005C 08133.58017835 .00029741 26709-5 22832-3 0 484 2 28941 98.1054 239.4604 0173185 170.3373 190.1293 15.55098418124503 HIT-SAT (HO-59) 1 29484U 06041F 08133.79786284 .00211626 20414-4 37566-3 0 3856 2 29484 98.2457 246.9195 0068634 133.9892 226.7202 15.97392144 92863 GENESAT-1 1 29655U 06058C 08133.21941624 .00005697 00000-0 76495-4 0 4122 2 29655 40.0252 160.5198 0003390 180.1749 179.9052 15.58302649 79773 CSTB1 1 31122U 07012F 08132.78654254 .00000553 00000-0 13192-3 0 3349 2 31122 98.0446 199.7305 0087496 82.4909 278.6223 14.55122982 56787 MAST 1 31126U 07012K 08133.23620995 .00000041 00000-0 19638-4 0 3242 2 31126 98.0399 199.1023 0095854 83.4047 277.8041 14.53421997 56796 LIBERTAD-1 1 31128U 07012M 08133.15569406 -.00000046 00000-0 00000+0 0 3282 2 31128 98.0392 198.1125 0104086 86.4170 274.8952 14.51944196 56709 POLYSAT CP3 1 31129U 07012N 08133.68336773 .00000340 00000-0 89029-4 0 9601 2 31129 98.0400 198.6566 0103524 84.5657 276.7324 14.52034528 56769 CAPE1 1 31130U 07012P 08133.63327795 .00000083 00000-0 29752-4 0 3045 2 31130 98.0416 198.5760 0104037 84.7994 276.5065 14.51960867 56560 POLYSAT CP4 1 31132U 07012Q 08133.19729884 .00000038 00000-0 18646-4 0 3100 2 31132 98.0429 200.1092 0087011 80.7550 280.3468 14.55115516 56714 NTS (CANX-6) 1 32784U 08021B 08133.18861090 .00000023 00000-0 98940-5 0 444 2 32784 97.9980 193.1853 0014780 247.3314 112.6332 14.80932926 2073 CANX-2 1 32785U 08021C 08133.18463887 .00000080 00000-0 17199-4 0 479 2 32785 97.9930 193.1868 0013776 252.1834 107.7880 14.81353622 2074 COMPASS-1 1 32787U 08021E 08133.38683330 .00000101 00000-0 19812-4 0 388 2 32787 97.9921 193.3786 0014577 254.4389 105.5213 14.81400929 2100 AAUSAT-II 1 32788U 08021F 08132.91303507 -.00000054 00000-0 -15357-7 0 395 2 32788 97.9913 192.9074 0014158 255.3216 104.6439 14.81506666 2038 DELFI-C3 1 32789U 08021G 08133.18448644 .00000298 00000-0 45047-4 0 459 2 32789 97.9925 193.1827 0014579 252.2877 107.6743 14.81373628 2072 2008-021H 1 32790U 08021H 08132.57536733 .00002296 00000-0 29906-3 0 365 2 32790 97.9957 192.5818 0013899 253.4809 106.4882 14.81535953 1963 SEEDS II 1 32791U 08021J 08133.38815373 .00000066 00000-0 15371-4 0 350 2 32791 97.9939 193.3833 0015030 251.4821 108.4757 14.81262836 2074 CUTE-1.7+APD II 1 32797U 08021L 08133.52240658 -.00000154 00000-0 -12823-4 0 78 2 32797 97.9931 193.5237 0014365 250.5809 109.3851 14.81348849 801